User: anonymous   Login
Location: Boca do Mato
(22.9085°S, 43.2930°W)
Time: 00:15:04
(UTC+00:00)
Language:

NOAA 12 - Orbit

View from above orbital plane
View from above orbital plane
View from above satellite
View from above satellite

Ground track
Ground track

The orbit data is extracted from the following two-line orbital elements,

1 21263U 91032A   20271.48254345 +.00000001 +00000-0 +18160-4 0  9997
2 21263 098.5070 278.4696 0014017 021.7383 338.4389 14.25921407527494
Epoch (UTC): 27 September 2020 11:34:51
Eccentricity: 0.0014017
inclination: 98.5070°
perigee height: 795 km
apogee height: 815 km
right ascension of ascending node: 278.4696°
argument of perigee: 21.7383°
revolutions per day: 14.25921407
mean anomaly at epoch: 338.4389°
orbit number at epoch: 52749

The dashed part of the orbit path shows where the satellite is in the earth's shadow,  

DLR